CW0506 Weather Reports


time (UTC)temp
C
wind
direction
speed
KPH
gust
KPH
rain 1hr
cm
rain 24hr
cm
rain mn
cm
humidity
%
barometer
mb
20260510190856 22 356 4.8 11.3 0.00 0.00 0.00 56 1012.9
20260510190353 21 17 4.8 9.7 0.00 0.00 0.00 58 1013.0
20260510185849 21 279 4.8 14.5 0.00 0.00 0.00 58 1012.9
20260510185348 21 352 0.0 8.0 0.00 0.00 0.00 61 1013.0
20260510184844 21 273 3.2 8.0 0.00 0.00 0.00 60 1013.2
20260510184342 21 264 4.8 6.4 0.00 0.00 0.00 58 1013.0
20260510183841 22 312 4.8 20.9 0.00 0.00 0.00 58 1013.1
20260510183337 21 165 0.0 9.7 0.00 0.00 0.00 62 1013.2
20260510182833 22 321 6.4 14.5 0.00 0.00 0.00 61 1013.0
20260510182330 22 289 17.7 17.7 0.00 0.00 0.00 64 1013.1
20260510181825 21 270 6.4 9.7 0.00 0.00 0.00 66 1013.1
20260510181323 21 16 4.8 16.1 0.00 0.00 0.00 64 1013.1
20260510180819 22 239 4.8 9.7 0.00 0.00 0.00 65 1013.1
20260510180316 21 344 3.2 8.0 0.00 0.00 0.00 62 1013.1
20260510175813 20 279 1.6 8.0 0.00 0.00 0.00 67 1013.0
20260510175309 21 253 6.4 11.3 0.00 0.00 0.00 64 1013.1
20260510174806 21 350 4.8 11.3 0.00 0.00 0.00 65 1013.3
20260510174303 21 234 8.0 11.3 0.00 0.00 0.00 67 1013.1
20260510173759 21 49 0.0 4.8 0.00 0.00 0.00 69 1013.2
20260510173255 20 92 0.0 6.4 0.00 0.00 0.00 72 1013.0
20260510172751 20 345 1.6 8.0 0.00 0.00 0.00 72 1013.1
20260510172247 20 312 4.8 6.4 0.00 0.00 0.00 71 1013.2
20260510171744 20 267 4.8 8.0 0.00 0.00 0.00 71 1013.2
20260510171241 20 85 4.8 14.5 0.00 0.00 0.00 72 1013.4
20260510170738 20 294 8.0 16.1 0.00 0.00 0.00 72 1013.4
20260510170234 20 335 6.4 11.3 0.00 0.00 0.00 71 1013.3
20260510165730 20 277 6.4 17.7 0.00 0.00 0.00 73 1013.3
20260510165226 20 348 3.2 8.0 0.00 0.00 0.00 71 1013.4
20260510164724 20 1 8.0 17.7 0.00 0.00 0.00 72 1013.5
20260510164221 20 309 3.2 8.0 0.00 0.00 0.00 74 1013.6
20260510163716 20 253 3.2 12.9 0.00 0.00 0.00 75 1013.5
20260510163212 19 245 8.0 9.7 0.00 0.00 0.00 75 1013.5
20260510162711 19 2 3.2 9.7 0.00 0.00 0.00 74 1013.8
20260510162209 19 285 6.4 16.1 0.00 0.00 0.00 73 1013.8
20260510161704 18 300 4.8 9.7 0.00 0.00 0.00 77 1013.8
20260510161201 19 330 4.8 12.9 0.00 0.00 0.00 74 1013.8
20260510160658 18 336 0.0 8.0 0.00 0.00 0.00 79 1013.7
20260510160153 19 311 3.2 8.0 0.00 0.00 0.00 76 1013.6
20260510155649 18 314 0.0 11.3 0.00 0.00 0.00 75 1013.8
20260510155145 19 305 8.0 11.3 0.00 0.00 0.00 72 1014.0
20260510154641 18 279 9.7 9.7 0.00 0.00 0.00 75 1013.8
20260510154137 18 305 3.2 12.9 0.00 0.00 0.00 76 1014.0
20260510153632 19 226 6.4 16.1 0.00 0.00 0.00 75 1014.1
20260510153129 19 269 4.8 9.7 0.00 0.00 0.00 76 1014.2
20260510152626 18 305 4.8 11.3 0.00 0.00 0.00 76 1014.1
20260510152122 18 69 1.6 14.5 0.00 0.00 0.00 77 1014.2
20260510151618 18 304 3.2 6.4 0.00 0.00 0.00 81 1014.3
20260510151117 17 340 0.0 9.7 0.00 0.00 0.00 78 1014.1
20260510150617 17 299 6.4 11.3 0.00 0.00 0.00 80 1014.2
20260510150113 17 218 4.8 8.0 0.00 0.00 0.00 84 1014.4
20260510145609 16 162 3.2 4.8 0.00 0.00 0.00 87 1014.1
20260510145106 16 286 4.8 11.3 0.00 0.00 0.00 84 1014.2
20260510144602 15 304 6.4 11.3 0.00 0.00 0.00 86 1014.1
20260510144058 16 249 6.4 8.0 0.00 0.00 0.00 87 1014.0
20260510143554 16 312 4.8 8.0 0.00 0.00 0.00 87 1014.0
20260510143050 15 150 4.8 6.4 0.00 0.00 0.00 87 1014.2
20260510142547 14 340 4.8 12.9 0.00 0.00 0.00 88 1014.3
20260510142044 14 290 4.8 11.3 0.00 0.00 0.00 89 1014.3
20260510141540 14 255 12.9 12.9 0.00 0.00 0.00 89 1014.4
20260510141038 14 270 8.0 12.9 0.00 0.00 0.00 89 1014.4
20260510140534 13 17 0.0 8.0 0.00 0.00 0.00 91 1014.4
20260510140034 15 321 4.8 4.8 0.00 0.00 0.00 89 1014.5
20260510135530 15 160 3.2 4.8 0.00 0.00 0.00 92 1014.4
20260510135026 13 38 1.6 6.4 0.00 0.00 0.00 94 1014.2
20260510134524 13 312 4.8 6.4 0.00 0.00 0.00 92 1014.1
20260510134020 12 184 0.0 3.2 0.00 0.00 0.00 96 1014.1
20260510133516 12 254 3.2 4.8 0.00 0.00 0.00 96 1014.2
20260510133013 12 199 1.6 6.4 0.00 0.00 0.00 96 1014.2
20260510132509 12 208 0.0 8.0 0.00 0.00 0.00 97 1014.3
20260510132006 12 217 0.0 1.6 0.00 0.00 0.00 97 1014.4
20260510131504 12 55 0.0 3.2 0.00 0.00 0.00 97 1014.3
20260510131001 12 70 1.6 3.2 0.00 0.00 0.00 97 1014.5
20260510130457 12 115 1.6 4.8 0.00 0.00 0.00 97 1014.4
20260510125954 12 282 0.0 3.2 0.00 0.00 0.00 97 1014.3
20260510125451 12 301 0.0 4.8 0.00 0.00 0.00 96 1014.2
20260510124947 12 296 0.0 3.2 0.00 0.00 0.00 97 1014.1
20260510124443 11 311 1.6 3.2 0.00 0.00 0.00 97 1014.2
20260510123941 11 20 1.6 3.2 0.00 0.00 0.00 99 1014.0
20260510123436 11 242 1.6 3.2 0.00 0.00 0.00 99 1014.1
20260510122932 11 289 1.6 4.8 0.00 0.00 0.00 99 1014.0
20260510122433 11 247 1.6 4.8 0.00 0.00 0.00 99 1013.9
20260510121929 11 320 3.2 3.2 0.00 0.00 0.00 99 1014.1
20260510121427 11 324 0.0 4.8 0.00 0.00 0.00 99 1014.1
20260510120924 11 304 0.0 1.6 0.00 0.00 0.00 99 1014.0
20260510120421 11 273 3.2 3.2 0.00 0.00 0.00 99 1014.0
20260510115917 11 132 0.0 1.6 0.00 0.00 0.00 99 1013.9
20260510115414 10 264 0.0 1.6 0.00 0.00 0.00 99 1014.1
20260510114910 11 247 0.0 1.6 0.00 0.00 0.00 99 1014.2
20260510114407 10 330 0.0 1.6 0.00 0.00 0.00 99 1014.0
20260510113902 11 17 0.0 1.6 0.00 0.00 0.00 99 1013.9
20260510113358 11 217 0.0 1.6 0.00 0.00 0.00 99 1013.8
20260510112855 11 125 0.0 1.6 0.00 0.00 0.00 99 1013.7
20260510112353 11 164 0.0 3.2 0.00 0.00 0.00 99 1013.6
20260510111848 10 214 1.6 3.2 0.00 0.00 0.00 99 1013.6
20260510111345 11 90 0.0 3.2 0.00 0.00 0.00 99 1013.7
20260510110840 10 189 0.0 0.0 0.00 0.00 0.00 99 1013.5
20260510110338 10 152 0.0 3.2 0.00 0.00 0.00 99 1013.4
20260510105834 10 242 0.0 3.2 0.00 0.00 0.00 99 1013.6
20260510105333 10 129 0.0 1.6 0.00 0.00 0.00 99 1013.6
20260510104830 10 137 0.0 1.6 0.00 0.00 0.00 99 1013.5
20260510104327 10 153 0.0 3.2 0.00 0.00 0.00 99 1013.4
20260510103823 10 156 0.0 3.2 0.00 0.00 0.00 99 1013.4
20260510103320 10 237 1.6 3.2 0.00 0.00 0.00 99 1013.3
20260510102816 10 242 0.0 1.6 0.00 0.00 0.00 99 1013.3
20260510102312 10 15 1.6 6.4 0.00 0.00 0.00 99 1013.3
20260510101809 10 249 0.0 3.2 0.00 0.00 0.00 99 1013.5
20260510101307 10 33 0.0 4.8 0.00 0.00 0.00 99 1013.4
20260510100803 10 247 0.0 4.8 0.00 0.00 0.00 99 1013.1
20260510100301 10 156 0.0 4.8 0.00 0.00 0.00 99 1013.0
20260510095756 10 258 0.0 1.6 0.00 0.00 0.00 99 1012.8
20260510095251 10 28 3.2 4.8 0.00 0.00 0.00 99 1013.0
20260510094750 10 186 3.2 4.8 0.00 0.00 0.00 99 1012.9
20260510094246 10 208 1.6 3.2 0.00 0.00 0.00 99 1013.2
20260510093742 10 20 3.2 4.8 0.00 0.00 0.00 99 1013.3
20260510093240 10 224 0.0 3.2 0.00 0.00 0.00 99 1013.0
20260510092735 10 166 1.6 3.2 0.00 0.00 0.00 99 1013.1
20260510092231 10 242 0.0 3.2 0.00 0.00 0.00 99 1013.4
20260510091727 10 33 0.0 3.2 0.00 0.00 0.00 99 1013.1
20260510091224 10 18 3.2 4.8 0.00 0.00 0.00 99 1013.2
20260510090720 10 212 3.2 4.8 0.00 0.00 0.00 99 1013.1
20260510090218 10 98 0.0 3.2 0.00 0.00 0.00 99 1013.2
20260510085712 10 180 1.6 3.2 0.00 0.00 0.00 99 1013.3
20260510085207 10 189 0.0 4.8 0.00 0.00 0.00 99 1013.3
20260510084704 10 193 1.6 3.2 0.00 0.00 0.00 99 1013.4
20260510084201 10 288 0.0 3.2 0.00 0.00 0.00 99 1013.7
20260510083658 10 222 0.0 1.6 0.00 0.00 0.00 99 1013.5
20260510083154 10 9 0.0 3.2 0.00 0.00 0.00 99 1013.4
20260510082645 10 330 0.0 1.6 0.00 0.00 0.00 99 1013.3
20260510082141 10 153 1.6 3.2 0.00 0.00 0.00 99 1013.2
20260510081635 10 122 1.6 3.2 0.00 0.00 0.00 99 1013.2
20260510081132 10 242 0.0 1.6 0.00 0.00 0.00 99 1013.3
20260510080630 10 96 3.2 4.8 0.00 0.00 0.00 99 1013.3
20260510080127 11 62 0.0 0.0 0.00 0.00 0.00 99 1013.1
20260510075625 11 9 0.0 3.2 0.00 0.00 0.00 99 1013.3
20260510075122 11 49 0.0 3.2 0.00 0.00 0.00 99 1013.1
20260510074619 11 158 0.0 1.6 0.00 0.00 0.00 99 1013.3
20260510074114 11 26 0.0 1.6 0.00 0.00 0.00 99 1013.2
20260510073610 11 165 1.6 1.6 0.00 0.00 0.00 99 1012.9
20260510073108 11 144 0.0 3.2 0.00 0.00 0.00 99 1013.1
20260510072604 11 158 1.6 3.2 0.00 0.00 0.00 99 1013.0
20260510072100 11 344 0.0 1.6 0.00 0.00 0.00 99 1012.9
20260510071556 11 203 1.6 3.2 0.00 0.00 0.00 99 1013.0
20260510071055 11 150 0.0 1.6 0.00 0.00 0.00 99 1012.9
20260510070551 11 137 0.0 1.6 0.00 0.00 0.00 99 1013.0
20260510070048 11 150 0.0 1.6 0.00 0.00 0.00 99 1012.9
20260510065544 11 175 0.0 0.0 0.00 0.00 0.00 99 1013.1
20260510065041 11 175 0.0 0.0 0.00 0.00 0.00 99 1013.0
20260510064537 11 242 0.0 1.6 0.00 0.00 0.00 99 1013.2
20260510064034 11 218 0.0 1.6 0.00 0.00 0.00 99 1013.0
20260510063531 11 324 0.0 0.0 0.00 0.00 0.00 99 1013.1
20260510063028 11 324 0.0 1.6 0.00 0.00 0.00 99 1012.9
20260510062524 11 55 0.0 1.6 0.00 0.00 0.00 99 1012.8
20260510062019 11 162 0.0 0.0 0.00 0.00 0.00 99 1012.6
20260510061516 11 142 0.0 1.6 0.00 0.00 0.00 99 1012.6
20260510061012 11 137 0.0 0.0 0.00 0.00 0.00 99 1012.7
20260510060509 11 137 0.0 0.0 0.00 0.00 0.00 99 1012.4
20260510060006 11 137 0.0 1.6 0.00 0.00 0.00 99 1012.6
20260510055501 11 273 0.0 0.0 0.00 0.00 0.00 99 1012.9
20260510054959 11 217 0.0 1.6 0.00 0.00 0.00 99 1012.7
20260510054454 11 150 0.0 0.0 0.00 0.00 0.00 99 1012.6
20260510053950 11 150 0.0 1.6 0.00 0.00 0.00 99 1012.9
20260510053445 11 264 0.0 1.6 0.00 0.00 0.00 99 1012.8
20260510052942 11 254 0.0 0.0 0.00 0.00 0.00 99 1012.8
20260510052438 11 305 0.0 1.6 0.00 0.00 0.00 99 1012.7
20260510051934 11 162 0.0 0.0 0.00 0.00 0.00 99 1012.5
20260510051430 11 162 0.0 0.0 0.00 0.00 0.00 99 1012.8
20260510050927 11 162 0.0 0.0 0.00 0.00 0.00 99 1012.9
20260510050424 11 132 0.0 0.0 0.00 0.00 0.00 99 1012.8
20260510045921 11 132 0.0 1.6 0.00 0.00 0.00 99 1012.9
20260510045418 11 137 0.0 1.6 0.00 0.00 0.00 99 1013.0
20260510044915 11 115 0.0 0.0 0.00 0.00 0.00 99 1012.8
20260510044412 11 115 0.0 0.0 0.00 0.00 0.00 99 1012.9
20260510043908 11 115 0.0 0.0 0.00 0.00 0.00 99 1012.9
20260510043404 11 91 0.0 1.6 0.00 0.00 0.00 99 1012.6
20260510042903 11 254 0.0 0.0 0.00 0.00 0.00 99 1013.0
20260510042358 11 262 0.0 1.6 0.00 0.00 0.00 99 1012.8
20260510041854 11 189 0.0 1.6 0.00 0.00 0.00 99 1012.6
20260510041352 11 165 0.0 1.6 0.00 0.00 0.00 99 1012.7
20260510040849 11 150 0.0 1.6 0.00 0.00 0.00 99 1012.6
20260510040346 11 150 0.0 1.6 0.00 0.00 0.00 99 1012.7
20260510035841 11 144 0.0 0.0 0.00 1.27 1.27 99 1012.7
20260510035337 11 137 0.0 1.6 0.00 1.27 1.27 99 1012.8
20260510034833 11 235 0.0 3.2 0.00 1.27 1.27 99 1012.9
20260510034331 11 87 0.0 1.6 0.00 1.27 1.27 99 1012.9
20260510033827 11 247 0.0 3.2 0.00 1.27 1.27 99 1012.8
20260510033324 11 264 0.0 1.6 0.00 1.27 1.27 99 1012.9
20260510032821 11 242 0.0 3.2 0.00 1.27 1.27 99 1012.8
20260510032318 11 227 3.2 4.8 0.00 1.27 1.27 99 1012.7
20260510031813 11 335 0.0 4.8 0.00 1.27 1.27 99 1012.7
20260510031309 11 0 3.2 6.4 0.00 1.27 1.27 99 1012.9
20260510030803 11 39 0.0 3.2 0.00 1.27 1.27 99 1013.0
20260510030300 11 277 0.0 4.8 0.00 1.27 1.27 99 1013.0
20260510025757 11 59 0.0 3.2 0.00 1.27 1.27 99 1012.9
20260510025255 11 307 0.0 3.2 0.00 1.27 1.27 99 1012.8
20260510024751 11 335 0.0 3.2 0.00 1.27 1.27 99 1012.7
20260510024248 11 250 3.2 8.0 0.00 1.27 1.27 99 1012.5
20260510023743 11 304 3.2 9.7 0.00 1.27 1.27 99 1012.3
20260510023235 11 319 3.2 4.8 0.00 1.27 1.27 99 1012.7
20260510022731 11 162 0.0 1.6 0.00 1.27 1.27 99 1012.6
20260510022226 11 270 0.0 3.2 0.00 1.27 1.27 99 1012.6
20260510021721 11 324 0.0 3.2 0.00 1.27 1.27 99 1012.8
20260510021219 11 236 1.6 3.2 0.00 1.27 1.27 99 1012.7
20260510020714 11 238 0.0 3.2 0.00 1.27 1.27 99 1012.7
20260510020209 11 144 0.0 1.6 0.00 1.27 1.27 99 1012.8
20260510015704 11 125 0.0 3.2 0.00 1.27 1.27 99 1012.9
20260510015201 11 61 0.0 3.2 0.00 1.27 1.27 99 1013.0
20260510014655 11 83 0.0 1.6 0.00 1.27 1.27 99 1012.8
20260510014153 11 267 1.6 3.2 0.00 1.27 1.27 99 1012.8
20260510013648 11 240 4.8 6.4 0.00 1.27 1.27 99 1013.0
20260510013144 11 262 0.0 6.4 0.00 1.27 1.27 99 1013.0
20260510012644 11 107 4.8 6.4 0.00 1.27 1.27 99 1012.8
20260510012140 11 132 3.2 4.8 0.00 1.27 1.27 99 1012.8
20260510011635 11 133 0.0 3.2 0.00 1.27 1.27 99 1012.6
20260510011131 11 59 1.6 3.2 0.00 1.27 1.27 99 1012.7
20260510010627 11 76 0.0 3.2 0.00 1.27 1.27 99 1012.3
20260510010125 11 113 1.6 3.2 0.00 1.27 1.27 99 1012.3
20260510005620 11 66 0.0 0.0 0.00 1.27 1.27 99 1012.4
20260510005117 11 155 0.0 0.0 0.00 1.27 1.27 99 1012.3
20260510004615 11 155 0.0 1.6 0.00 1.27 1.27 99 1012.4
20260510004113 11 128 1.6 1.6 0.00 1.27 1.27 99 1012.2
20260510003610 11 160 0.0 1.6 0.00 1.27 1.27 99 1012.4
20260510003106 11 119 0.0 3.2 0.00 1.27 1.27 99 1012.3
20260510002600 11 115 0.0 1.6 0.00 1.27 1.27 99 1012.2
20260510002057 11 98 1.6 1.6 0.00 1.27 1.27 99 1012.0
20260510001554 11 139 1.6 3.2 0.00 1.27 1.27 99 1012.0
20260510001053 11 36 1.6 3.2 0.00 1.27 1.27 99 1012.2
20260510000548 11 66 3.2 3.2 0.00 1.27 1.27 99 1012.0
20260510000046 11 100 0.0 1.6 0.00 1.27 1.27 99 1011.9
20260509235542 11 182 0.0 3.2 0.00 1.27 1.27 99 1011.9
20260509235039 11 83 1.6 3.2 0.00 1.27 1.27 99 1011.9
20260509234535 11 137 1.6 4.8 0.00 1.27 1.27 99 1011.9
20260509234033 11 129 0.0 4.8 0.00 1.27 1.27 99 1012.1
20260509233530 11 100 1.6 3.2 0.00 1.27 1.27 99 1012.0
20260509233027 11 303 0.0 3.2 0.00 1.27 1.27 99 1012.2
20260509232524 11 286 3.2 6.4 0.00 1.27 1.27 99 1012.1
20260509232020 11 256 3.2 4.8 0.00 1.27 1.27 99 1012.3
20260509231517 11 110 1.6 1.6 0.00 1.27 1.27 99 1012.4
20260509231015 11 70 0.0 3.2 0.00 1.27 1.27 99 1012.4
20260509230511 11 277 0.0 3.2 0.00 1.27 1.27 99 1012.5
20260509230008 11 73 0.0 3.2 0.00 1.27 1.27 99 1012.2
20260509225504 11 264 0.0 3.2 0.05 1.27 1.27 99 1012.7
20260509224959 11 250 0.0 3.2 0.05 1.27 1.27 99 1012.5
20260509224449 11 243 1.6 4.8 0.00 1.27 1.27 99 1012.7
20260509223946 11 305 0.0 3.2 0.05 1.27 1.27 99 1012.4
20260509223443 11 60 0.0 8.0 0.05 1.27 1.27 99 1012.7
20260509222941 11 318 1.6 3.2 0.13 1.24 1.24 99 1012.6
20260509222436 11 105 0.0 3.2 0.23 1.24 1.24 99 1012.6
20260509221932 11 335 4.8 8.0 0.23 1.22 1.22 99 1012.7
20260509221429 11 161 1.6 3.2 0.18 1.19 1.19 99 1012.7
20260509220924 11 92 0.0 3.2 0.13 1.19 1.19 99 1012.6
20260509220420 10 132 1.6 3.2 0.13 1.17 1.17 99 1012.9
20260509215917 10 117 1.6 3.2 0.13 1.17 1.17 99 1012.8
20260509215412 10 264 1.6 4.8 0.13 1.14 1.14 99 1013.1
20260509214910 10 155 0.0 1.6 0.05 1.14 1.14 99 1012.7
20260509214407 10 251 0.0 1.6 0.00 1.14 1.14 99 1012.9
20260509213904 10 106 0.0 0.0 0.05 1.14 1.14 99 1012.9
20260509213359 10 106 0.0 1.6 0.05 1.14 1.14 99 1013.0
20260509212857 10 55 1.6 4.8 0.00 1.12 1.12 99 1012.7
20260509212355 10 88 0.0 4.8 0.05 1.12 1.12 99 1012.6
20260509211851 10 95 0.0 4.8 0.05 1.12 1.12 99 1012.5
20260509211346 10 317 0.0 3.2 0.00 1.12 1.12 99 1012.6
20260509210843 11 242 0.0 3.2 0.05 1.12 1.12 99 1012.8
20260509210341 11 257 0.0 3.2 0.13 1.12 1.12 99 1012.6
20260509205840 10 224 1.6 3.2 0.18 1.09 1.09 99 1012.7
20260509205335 10 254 0.0 1.6 0.13 1.07 1.07 99 1012.7
20260509204832 10 6 0.0 3.2 0.18 1.07 1.07 99 1013.0
20260509204328 11 95 1.6 4.8 0.23 1.07 1.07 99 1012.6
20260509203824 11 240 0.0 3.2 0.30 1.04 1.04 99 1012.9
20260509203321 11 274 3.2 4.8 0.66 1.02 1.02 99 1013.0
20260509202818 11 314 0.0 3.2 0.79 0.99 0.99 99 1013.2
20260509202314 11 249 1.6 3.2 0.43 0.89 0.89 99 1013.3
20260509201813 11 310 3.2 4.8 0.30 0.84 0.84 99 1013.0
20260509201310 11 236 0.0 1.6 0.30 0.81 0.81 99 1013.0
20260509200807 11 89 1.6 1.6 0.36 0.79 0.79 99 1012.8
20260509200302 11 125 0.0 1.6 0.36 0.76 0.76 99 1013.0
20260509195758 11 289 1.6 3.2 0.30 0.74 0.74 99 1013.0
20260509195253 11 101 0.0 3.2 0.36 0.71 0.71 99 1012.8
20260509194748 11 144 0.0 1.6 0.30 0.69 0.69 99 1013.2
20260509194244 11 230 0.0 3.2 0.30 0.66 0.66 99 1013.1
20260509193742 11 136 1.6 3.2 0.30 0.61 0.61 99 1013.0
20260509193241 11 228 3.2 3.2 0.23 0.58 0.58 99 1013.1
20260509192738 11 70 1.6 1.6 0.36 0.56 0.56 99 1013.2
20260509192232 11 129 0.0 3.2 0.84 0.53 0.53 98 1013.1
20260509191728 11 249 0.0 4.8 1.07 0.51 0.51 98 1013.1
20260509191225 11 213 0.0 4.8 0.79 0.38 0.38 97 1013.1